Flag Weather past 2 weeks in Burg, Saxony-Anhalt, Germany

Now
47 °F

Fog.


Feels Like: 47 °F
Forecast: 48 / 62 °F
Wind: 1 mph from Southeast

Location: Magdeburg

Current Time: Oct 31, 2014 at 8:02:59 AM

Latest Report: Oct 31, 2014 at 7:00 AM


Visibility: 1 mi

Pressure: 30.25 "Hg

Humidity: 98%

Dew point: 46 °F

Location of BurgLocation

Historic Weather in Burg — Graph

°F

Burg temperature yesterday

Maximum temperature yesterday: 52 °F (at 3:00 PM)
Minimum temperature yesterday: 47 °F (at 2:00 AM)
Average temperature yesterday: 49 °F

Past Weeks' High & Low Weather Summary

 TemperatureHumidityPressure
High74 °F (Oct 19, 3:00 PM)100% (Oct 28, 9:00 AM)30.33 "Hg (Oct 28, 9:00 AM)
Low32 °F (Oct 29, 7:00 AM)59% (Oct 19, 2:00 PM)29.47 "Hg (Oct 21, 7:00 PM)
Average52 °F87%30.05 "Hg
* Reported Oct 16 8:00 AM — Oct 31 7:00 AM, Burg, Weather by CustomWeather, © 2014

Note: Actual official high and low records may vary slightly from our data, if they occured in-between our weather recording intervals... More about our weather records

Advertising

Burg weather history for previous 24 hours

 ConditionsComfort  
Time TempWeatherWind HumidityBarometerVisibility
7:00 AM
Oct 31
47 °FFog.1 mph98%30.25 "Hg1 mi
6:00 AM46 °FFog.1 mph98%30.26 "Hg1 mi
5:00 AM48 °FPassing clouds.1 mph97%30.25 "Hg1 mi
3:00 AM49 °FFog.1 mph97%30.26 "Hg1 mi
2:00 AM49 °FCool.2 mph97%30.27 "Hg1 mi
1:00 AM49 °FFog.2 mph97%30.28 "Hg1 mi
12:00 AM49 °FFog.1 mph97%30.29 "Hg1 mi
11:00 PM
Oct 30
49 °FFog.1 mph96%30.29 "Hg1 mi
9:00 PM49 °FFog.1 mph95%30.30 "Hg2 mi
8:00 PM50 °FFog.2 mph94%30.29 "Hg3 mi
7:00 PM51 °FFog.1 mph93%30.29 "Hg4 mi
6:00 PM50 °FFog.1 mph92%30.29 "Hg3 mi
5:00 PM51 °FFog.1 mph90%30.29 "Hg4 mi
3:00 PM52 °FLow clouds.1 mph85%30.28 "Hg5 mi
2:00 PM51 °FOvercast.1 mph85%30.28 "Hg7 mi
1:00 PM51 °FLow clouds.1 mph88%30.27 "Hg6 mi
12:00 PM50 °FLow clouds.1 mph89%30.27 "Hg7 mi
11:00 AM50 °FFog.1 mph90%30.27 "Hg4 mi
9:00 AM48 °FFog.1 mph96%30.25 "Hg3 mi
8:00 AM48 °FLow clouds.1 mph97%30.24 "Hg1 mi
Weather by CustomWeather, © 2014

See weather overviewHow to use our weather pages